Find Local Weather

World > North America > United States > Michigan

Ann Arbor, Michigan Regional Weather

Lat: 42.28N, Lon: 83.73W
Wx Zone: MIZ075
Warning FLW WEATHER ALERT - (More Info. Click Here) Warning
Feedback
Expires:201808191000;;888221
ASUS43 KDTX 190910
RWRMI 
MICHIGAN HOURLY REGIONAL WEATHER ROUNDUP
NATIONAL WEATHER SERVICE DETROIT/PONTIAC MI
ISSUED BY NATIONAL WEATHER SERVICE GRAND RAPIDS MI
500 AM EDT SUN AUG 19 2018

NOTE: "FAIR" INDICATES FEW OR NO CLOUDS BELOW 12,000 FEET WITH NO
SIGNIFICANT WEATHER AND/OR OBSTRUCTION TO VISIBILITY.


MIZ047>049-052>055-059>063-066>070-074>076-081>083-191000-
SOUTHEAST LOWER MICHIGAN
  
CITY           SKY/WX    TMP DP  RH WIND       PRES   REMARKS
ADRIAN         FAIR      64  63  96 CALM      30.01R                  
ALMA           FOG       62  62 100 CALM      30.01S VSB 1/4          
ANN ARBOR      MOCLDY    65  65 100 CALM      29.99S FOG              
BAD AXE        CLOUDY    58  57  97 CALM      30.01S FOG              
DETROIT CITY   MOCLDY    69  66  90 CALM      30.00R                  
DETROIT        CLOUDY    71  68  90 CALM      30.00R FOG              
FLINT          FOG       63  62  97 CALM      30.01R VSB 1/4          
GROSSE ILE     CLOUDY    70  67  92 NE3       29.98S                  
HILLSDALE      FOG       61  59  94 CALM      30.00S VSB 1/4          
HOWELL         CLOUDY    65  64  97 CALM      30.00S                  

CITY           SKY/WX    TMP DP  RH WIND       PRES   REMARKS
JACKSON        CLOUDY    64  64 100 CALM      30.00S FOG              
LANSING        FOG       65  65 100 CALM      30.00S VSB 1/4          
MASON          CLOUDY    64  61  90 CALM      30.00S FOG              
MONROE         CLOUDY    68  66  93 CALM      29.98S FOG              
MT. CLEMENS    FAIR      67  67 100 CALM        N/A  FOG              
PONTIAC        FAIR      66  66 100 CALM      29.99S                  
PORT HOPE        N/A     64  63  96 CALM      29.99S                  
PORT HURON     FOG       61  61 100 CALM      30.00S VSB 1/4          
TRI CITIES     FAIR      64  64 100 CALM      30.01S FOG              
YPSILANTI      CLOUDY    72  68  87 CALM      30.00S FOG              
$$

SKY/WX - Weather  TMP - Temperature  DP - Dewpoint  RH - Relative Humidity
WIND - Wind Direction/Speed PRES - Barometric Pressure